Velovelo
Português Nederlands 日本語 中文
Español English čeština slovenčina
русский italiano polski norsk
français Deutsch svenska عربي
 
 página anterior
 Enviar a amigos
 Para imprimir
 ---> La Serre Che Luc Alphand 2009 : Résultats du 102 km

ClasDosNomPrénom..Temps......Moy....
1 257 GARNIER SERGE 03:02:14 35,56
2 288 VALETTI CARLETTO 03:07:33 34,55
3 283 DURAND MATTHIEU 03:07:34 34,55
4 180 VILLEMIN PHILIPPE 03:08:34 34,36
5 162 RAISON GAUTHIER 03:08:35 34,36
6 224 HALGRAIN NICOLAS 03:08:36 34,36
7 103 LUGLIA DANIEL 03:09:23 34,22
8 1412 CARAMEL MAXIME 03:09:25 34,21
9 254 SCHMITT PATRICK 03:09:25 34,21
10 207 MENDEZ DENIS 03:09:30 34,20
11 206 GILBERT JEANSELME NICOLAS 03:09:41 34,16
12 165 THOMMASSET LUDOVIC 03:10:14 34,06
13 48 RUSCETTA GAEL 03:10:17 34,05
14 19 CHAW ASA 03:11:34 33,83
15 1406 FRICKER DANIEL 03:13:10 33,55
16 141 GLEIZAL FLORENT 03:13:13 33,54
17 1431 SUCHET ANDRE 03:14:31 33,31
18 1005 CHENE THIBAUT 03:14:52 33,25
19 24 CHIAPPUCCI CLAUDIO 03:15:05 33,22
20 216 MARTIN PIERRE 03:15:30 33,15
21 508 RODRIGUEZ SEBASTIEN 03:15:30 33,15
22 273 TAISSE FREDERIC 03:15:33 33,14
23 158 DALMASSO CHRISTOPHE 03:15:48 33,09
24 23 CHALEAT PATRICK 03:15:48 33,09
25 998 BONETTO CHRISTOPHE 03:15:49 33,09
26 554 BUSI GIAMPAOLO 03:15:49 33,09
27 230 RENDINELLA CLAUDIO 03:15:50 33,09
28 1315 DIDIER FRANCK 03:15:50 33,09
29 181 MARTINEZ ROGER 03:15:51 33,09
30 100 FIORITO BRUNO 03:15:52 33,08
31 263 TYTGAT RELLOUY ROMARIC 03:15:57 33,07
32 223 AMAR NICOLAS 03:16:19 33,01
33 67 GULLON GILLES 03:16:41 32,95
34 1268 DEVERCI GUILLAUME 03:17:34 32,80
35 528 ARRANZ PENA MARIO 03:17:35 32,80
36 1427 TEPPA OLIVIER 03:17:38 32,79
37 236 MANUEL PATRICE 03:17:40 32,78
38 214 MILLET THIBAULT 03:17:45 32,77
39 74 D ANGIO GERARD 03:17:45 32,77
40 151 ROUSSE DENIS 03:18:31 32,64
41 68 GAURIAT DAMIEN 03:18:31 32,64
42 1286 ALLIONE DENIS 03:20:24 32,34
43 71 VIVES CHRISTOPHE 03:20:26 32,33
44 1130 KEHOE JOHN 03:20:26 32,33
45 243 VAN DER BROEK MARC 03:20:27 32,33
46 804 KURKDJI PATRICK 03:20:28 32,32
47 1193 FORT MATHIEU 03:20:44 32,28
48 175 GASTALDI MAXIME 03:21:33 32,15
49 118 CURELLI ELIAN 03:22:02 32,07
50 115 CURELLI MARC 03:22:05 32,07
51 253 SELLIER MANUEL 03:22:13 32,04
52 1258 ARMANDO FABRIZIO 03:22:21 32,02
53 179 PUISSEGUR JOSEPH 03:22:46 31,96
54 1055 SALOMON LAURENT 03:22:51 31,94
55 195 GHENNAM LIONEL 03:22:52 31,94
56 153 ANDREOTTI PATRICK 03:22:52 31,94
57 65 DHORNE CYRIL 03:22:53 31,94
58 570 ARNAUD SYLVAIN 03:22:58 31,93
59 1445 RANDON PHILIPPE 03:23:31 31,84
60 5 PHILIPPE PASCAL 03:23:33 31,83
61 1103 SEVIN DORIAN 03:23:42 31,81
62 505 BOUVIER PATRICK 03:23:44 31,81
63 1399 BESSIERE THIERRY 03:24:35 31,67
64 242 MARMI XAVIER 03:24:39 31,66
65 1314 COSTANTIN RENZO 03:24:45 31,65
66 497 TALBOT PASCAL 03:25:21 31,56
67 405 FAURE NICOLAS 03:25:25 31,55
68 1008 CASARIN DANIELE 03:25:42 31,50
69 352 SEICHEPINE DIDIER 03:25:42 31,50
70 1448 COMBE FABRICE 03:25:50 31,48
71 264 CHASTAN YANNICK 03:26:23 31,40
72 1443 MARTIN ALEX 03:27:08 31,28
73 276 BONNET MICHEL 03:27:08 31,28
74 1287 NACHBAR JEAN 03:27:12 31,27
75 1257 REVELLI MARCO 03:27:14 31,27
76 205 BERGAGLIA DENIS 03:27:19 31,26
77 293 LOUCEL BENOIT 03:28:17 31,11
78 139 VIALA PHILIPPE 03:28:34 31,07
79 176 BERTET ALAIN 03:28:37 31,06
80 1147 RAHAL JEAN PIERRE 03:28:37 31,06
81 132 IMBERT PATRICK 03:28:38 31,06
82 199 PICAUD CHRISTIAN 03:28:40 31,05
83 407 POMPOUGNAC LIONEL 03:28:41 31,05
84 1442 BILLARD JEAN LOUIS 03:28:42 31,05
85 418 SAVOURE ANDRE 03:29:22 30,95
86 272 OLIVE AURELIEN 03:29:50 30,88
87 1170 FENDT JEAN YVES 03:29:51 30,88
88 698 ARNAUD CHRISTOPHE 03:29:51 30,88
89 1053 BOURRON THOMAS 03:30:00 30,86
90 682 MORELATO THIERRY 03:30:00 30,86
91 120 CASTERA ALAIN 03:30:02 30,85
92 1186 DEMORY FRANCIS 03:30:27 30,79
93 227 EXCOFFIER CLAUDE 03:30:29 30,79
94 279 ARIATTI SARAH 03:30:33 30,78
95 32 BARTHOLOMEE SEBASTIEN 03:30:34 30,77
96 525 BOZONNIER GREGORY 03:30:50 30,74
97 174 GASTALDI BENJAMIN 03:30:58 30,72
98 287 POIROT RAPHAEL 03:31:02 30,71
99 1060 PACAUD LIONEL 03:31:03 30,70
100 1398 CAVALLO EUGENIO 03:31:25 30,65
101 1373 NUNIGE BERNARD 03:33:11 30,40
102 1175 BICHET FRANCOIS 03:33:45 30,32
103 1128 NAVARRO ALAIN 03:33:48 30,31
104 1440 VACHIER PATRICK 03:34:00 30,28
105 1085 BOULOT MARC 03:34:23 30,23
106 555 DIAZ CARLOS 03:34:28 30,21
107 1433 LANCELLE GILLES 03:34:29 30,21
108 245 BOBILLIER PHILIPPE 03:34:30 30,21
109 152 SEVILLA PIERRE 03:34:34 30,20
110 191 DE VELLIS PIERRE JEAN 03:34:51 30,16
111 833 MAGNO JEROME 03:34:52 30,16
112 1333 NAVARRO CHRISTIAN 03:34:52 30,16
113 104 PECHDO DIDIER 03:34:53 30,16
114 1095 ESPUNA LUDOVIC 03:34:54 30,15
115 671 LEVRINO GILBERT 03:34:59 30,14
116 340 GHIRARDINI SERGE 03:35:03 30,13
117 670 BRECHARD THIBAUT 03:35:04 30,13
118 1018 DABONOT ERIC 03:35:09 30,12
119 783 DARRAS THIERRY 03:35:18 30,10
120 190 COZZOLINO FREDERIC 03:35:41 30,04
121 297 FALLENBACH PATRICK 03:35:41 30,04
122 234 ANDRE CHRISTIAN 03:35:43 30,04
123 750 MILLET LOIC 03:35:46 30,03
124 16 PICCARI ANNARITA 03:35:58 30,00
125 161 SCACCABAROZZI DANIELO PIERO 03:35:58 30,00
126 696 CONSTANT DORIAN 03:36:01 30,00
127 1256 GROSSO MICHELE 03:36:26 29,94
128 150 BARDE JEAN CHARLES 03:36:37 29,91
129 850 SOUEL ARNO 03:37:36 29,78
130 1444 ELZEARD XAVIER 03:37:46 29,76
131 818 FAURE BRAC FRANCK 03:38:04 29,72
132 1164 ROUX PASCAL 03:38:40 29,63
133 41 RUSCETTA JORDANE 03:38:40 29,63
134 864 GAILLAND MICHEL 03:38:42 29,63
135 1145 PANCIATICI SERGE 03:38:44 29,63
136 1165 TOSI CHRITIAN 03:38:46 29,62
137 1239 SMORTO CHRISTIAN 03:38:47 29,62
138 1285 PETITJEAN 2 CEDRIC 03:39:18 29,55
139 368 GIRAUD JEAN LOUIS 03:39:43 29,49
140 220 AUSSET PASCAL 03:39:44 29,49
141 982 ADAM PHILIPPE 03:39:53 29,47
142 159 ISAIA DIDIER 03:40:39 29,37
143 154 MALLET PATRICK 03:40:49 29,35
144 814 FERU MICHEL 03:40:50 29,34
145 1421 VIZIER JEAN MICHEL 03:40:54 29,33
146 1320 BARONCHELLI CORRADO 03:40:54 29,33
147 1065 BERTRAND CYRIL 03:40:58 29,33
148 456 BRIZARD PIERRE 03:41:00 29,32
149 527 ARRANZ CARRERA FERNANDO 03:41:00 29,32
150 922 FILIOL RICHARD 03:41:06 29,31
151 585 FERRARIS JEROME 03:41:14 29,29
152 56 COMETTO BERNARD 03:41:26 29,26
153 1434 ROUX JULIEN 03:42:03 29,18
154 1323 SAFI NICOLAS 03:42:03 29,18
155 2 MATHE BRUNO 03:42:07 29,17
156 1076 HYZARD HENRI 03:42:30 29,12
157 542 PITCHON STEPHANE 03:42:38 29,11
158 117 RENCHET HERVE 03:42:39 29,10
159 208 CASTERA MICHEL 03:42:49 29,08
160 494 GIRAUD OLIVIER 03:42:50 29,08
161 1423 MARCONE RICHARD 03:42:52 29,08
162 1181 KILMARTIN JANE 03:42:53 29,07
163 551 AUCHECORNE ALEXANDRE 03:42:53 29,07
164 1091 MEISSNER EMMANUELLE 03:42:54 29,07
165 642 SPARFEL RONAN 03:43:38 28,98
166 849 ESPRIT FREDERIC 03:43:46 28,96
167 1022 BIAU JEREMY 03:44:22 28,88
168 1437 NEY JEAN MARIE 03:44:26 28,87
169 1418 ORSI PATRICK 03:44:31 28,86
170 70 COLLOMB JULIEN 03:44:48 28,83
171 291 PRVULOVIC MIODRAG 03:44:56 28,81
172 1021 JOUANNAUD BENJAMIN 03:45:01 28,80
173 149 BEGLIOMINI SONIA 03:45:24 28,75
174 1154 COUDERC SEbastien 03:45:25 28,75
175 343 LIAUTARD CHRISTIAN 03:45:27 28,74
176 1281 GRANIER PELISSIER JEAN CHARLES 03:45:28 28,74
177 1112 MICALEFF DAVID 03:45:30 28,74
178 163 RAISON YVES 03:45:32 28,73
179 72 BOZZI GILBERT 03:45:55 28,68
180 1113 BERT GEORGES 03:46:23 28,62
181 265 AMBROISE EDWIN 03:46:24 28,62
182 630 MOLLA CLAUDE 03:47:10 28,53
183 361 ERNESTO HOMAR TENIENTE AVILES 03:47:19 28,51
184 341 GAUTIER PHILIPPE 03:47:21 28,50
185 710 VALSASINA JOEL 03:47:21 28,50
186 27 LAGUNA RAYMONDE 03:47:27 28,49
187 351 CHAVEE LIONEL 03:47:28 28,49
188 1107 SICARD GUY 03:47:59 28,42
189 140 BASCHENIS MARCEL 03:48:05 28,41
190 1277 HEINIS PATRICE 03:48:12 28,40
191 705 GUICHOUX PATRICE 03:48:13 28,39
192 1300 RENARD JEAN YVES 03:48:14 28,39
193 1082 FAURE REMY 03:48:15 28,39
194 832 LE PONCIN JEAN MARIE 03:48:28 28,36
195 885 VIAL JEAN FREDERIC 03:48:45 28,33
196 997 ACUTO AUGUSTO 03:48:47 28,32
197 496 GROSSI FREDERIC 03:49:25 28,25
198 354 SCHAFF PHILIPPE 03:49:26 28,24
199 903 WILLIATTE BENJAMIN 03:49:51 28,19
200 598 ROUGNY LUC 03:49:57 28,18
201 1343 VINSON DENIS 03:50:29 28,11
202 277 GRAZIANI VALERIE 03:51:32 27,99
203 633 MUSSET BERNARD 03:51:46 27,96
204 1432 VALPERGA TIZIANO 03:51:47 27,96
205 1051 PERCEVAL ARNAUD 03:51:53 27,95
206 408 LARRIEU LAURENT 03:51:54 27,94
207 797 ANDREANI SERGE 03:52:12 27,91
208 1213 BONNET NICOLAS 03:52:21 27,89
209 1364 VINAY RAPHAEL 03:53:02 27,81
210 854 BAILLY CHRISTOPHE 03:53:08 27,80
211 736 GIRARDO REGIS 03:53:20 27,77
212 1282 DE CICCO ERIC 03:53:20 27,77
213 520 MILAN PAUL 03:53:25 27,76
214 1044 LAMICHE ANTHONY 03:53:25 27,76
215 1132 BEKAERT GERARD 03:53:47 27,72
216 1447 THOMAS PASCAL 03:54:38 27,62
217 1435 CAMUS FRANCK 03:54:40 27,61
218 1279 HELL PHILIPPE 03:54:42 27,61
219 1425 JOULIN GILBERT 03:55:07 27,56
220 984 VERASANO NINO 03:55:12 27,55
221 142 HARMOIS CLEMENTINE 03:55:23 27,53
222 856 ASENSIO FRANCIS 03:55:24 27,53
223 430 ROMEO FRANCOIS 03:55:41 27,49
224 801 CORNU JEAN 03:55:42 27,49
225 106 TREGUIER EMMANUELLE 03:55:42 27,49
226 1313 BOULOUS DAVID 03:55:42 27,49
227 1016 CHIERA VALERIO 03:55:46 27,48
228 442 NOEL THOMAS 03:55:54 27,47
229 995 DELLA REGINA OSCAR 03:56:04 27,45
230 506 LATOUR ALBAN 03:56:10 27,44
231 679 BOLOGNA SERGE 03:56:25 27,41
232 600 LAMANNA CHRISTOPHE 03:56:26 27,41
233 1052 BRETIN SIMON 03:57:06 27,33
234 692 ESCALIERE ROBERT 03:57:20 27,30
235 813 ASTIER GILLES 03:57:46 27,25
236 414 ROCHE FRANCOIS 03:58:43 27,15
237 769 GUIBERT SYLVAIN 03:58:44 27,14
238 948 JARNO PATRICK 03:58:45 27,14
239 1171 EYBERT PATRICK 03:58:47 27,14
240 947 GONDEK SERGE 03:59:03 27,11
241 925 TAVERNA GILLES 03:59:11 27,09
242 1003 PERIN MATHIEU 03:59:22 27,07
243 309 PRIEUR BLANC BENOIT 03:59:25 27,07
244 403 CHAMPOSSIN THIERRY 03:59:26 27,06
245 1419 PRIMON LIONEL 03:59:28 27,06
246 1172 MOYA THIERRY 03:59:31 27,05
247 837 MERIC JEAN BRICE 03:59:46 27,03
248 795 JUANCO ARTURO 04:00:11 26,98
249 1058 CHANGENET PATRICK 04:00:13 26,98
250 836 REYMOND FRANCIS 04:00:15 26,97
251 1101 GARNIER DANIEL 04:00:47 26,91
252 553 MILAN JEAN 04:01:08 26,87
253 1439 BERNARD CHRISTOPHE 04:01:10 26,87
254 1118 BLANCHARD RAPHAEL 04:01:26 26,84
255 851 GRANDJEAN PATRICK 04:01:36 26,82
256 196 MELANI CELINE 04:01:54 26,79
257 566 MUZZUPAPA DANIEL 04:01:55 26,79
258 1383 BRUNET MANQUAT GILBERT 04:01:55 26,79
259 802 ANDREANI PIERRE 04:01:56 26,78
260 1450 VIAL JAIME THIERRY 04:01:57 26,78
261 1150 MAUREL STEPHANE 04:01:57 26,78
262 394 PALHIER RAPHAEL 04:02:00 26,78
263 659 FADAT CEDRIC 04:02:12 26,75
264 927 HUGUES ERIC 04:02:17 26,75
265 631 CALZIA JEAN CLAUDE 04:02:38 26,71
266 624 VIDA ALEXANDRE 04:02:40 26,70
267 1166 TOUTAIN GILLES 04:02:55 26,68
268 326 SIMON GEORGES 04:03:06 26,66
269 91 LESCURE HERVE 04:03:09 26,65
270 743 CLUZEL BERNARD 04:03:27 26,62
271 476 NAVAJAS BRUNO 04:03:27 26,62
272 475 POMA BRUNO 04:03:27 26,62
273 768 MARTIN PATRICK 04:03:55 26,57
274 569 VINCENT PATRICK 04:03:59 26,56
275 292 MIEUSSET KARINE 04:04:03 26,55
276 1404 PINA FABIEN 04:04:04 26,55
277 605 DUCRET DIDIER 04:04:05 26,55
278 318 CORFEC DIDIER 04:04:10 26,54
279 213 LATASTE JEAN FRANCOIS 04:04:17 26,53
280 843 SALA JEAN MICHEL 04:04:18 26,52
281 1302 GUELPA PATRICK 04:04:19 26,52
282 335 CURELLI PATRICK 04:04:19 26,52
283 510 GIORGI STEFANO 04:04:27 26,51
284 435 PEDERSEN MALENE 04:04:27 26,51
285 434 IGNAKI BENAREAU 04:04:28 26,51
286 1163 ROUSSEAU CHRISTINE 04:04:39 26,49
287 1396 DUMARQUEZ GUY 04:04:41 26,48
288 1422 BARTHE XAVIER 04:04:43 26,48
289 290 JUNG CLAIRE 04:04:58 26,45
290 701 MANGEANT LUDOVIC 04:04:59 26,45
291 1146 BUGNI MATHIS 04:05:27 26,40
292 613 POTTIER HUGUES 04:05:39 26,38
293 1037 BETTON PASCAL 04:06:08 26,33
294 69 COLLOMB PIERRE 04:06:13 26,32
295 237 FRANSSEN STEPHANE 04:06:25 26,30
296 560 FIARD LAURENE 04:06:30 26,29
297 608 MARIAC JEAN FRANCOIS 04:06:33 26,28
298 958 CARDANI MATTEO 04:06:48 26,26
299 316 BOURGEAIS MAURICE 04:06:52 26,25
300 666 NAPOLEONI CHRISTOPHE 04:07:06 26,22
301 669 BELZ GILLES 04:07:06 26,22
302 337 MERLEN MICKAEL 04:07:08 26,22
303 183 PINEL JEAN CLAUDE 04:07:32 26,18
304 825 MARTIN FREDERIC 04:08:01 26,13
305 536 RANGUIS HERVE 04:08:02 26,13
306 1157 MANSOURI SAID 04:08:26 26,08
307 1260 COCHIN CHRISTOPHE 04:08:34 26,07
308 37 MEANO ISABELLE 04:08:34 26,07
309 576 OHANIAN CHRISTOPHE 04:08:37 26,06
310 189 BAILLY JACQUES 04:08:41 26,06
311 601 ICARDI MICHEL 04:09:15 26,00
312 727 ICARDI DAVID 04:09:16 26,00
313 777 ARNAUD ESTELLE 04:09:39 25,96
314 778 ARNAUD LUDOVIC 04:09:39 25,96
315 349 MAISONNAT HERVE 04:10:33 25,86
316 756 MOURLON CLAUDE 04:10:35 25,86
317 260 FINE MURIEL 04:10:37 25,86
318 312 JACQUOT JEAN MARC 04:10:37 25,86
319 1195 LEGALLAIS ERICK 04:10:41 25,85
320 1167 MOREAU JOCELYN 04:10:41 25,85
321 428 CARAMELLO JEAN PIERRE 04:10:43 25,85
322 437 MARIN JEAN CLAUDE 04:11:06 25,81
323 1284 ROYOT ERIC 04:11:07 25,80
324 1303 PERIER CAMBY PATRICK 04:11:09 25,80
325 1026 LUCIANI MARC 04:11:17 25,79
326 985 PETIT MICHEL 04:11:21 25,78
327 1263 GUILLERMARD HUGUES 04:11:52 25,73
328 617 SALLES PASCAL 04:12:24 25,67
329 644 ASCENSIO CHRISTIAN 04:12:29 25,67
330 643 BASTONERO RICHARD 04:12:29 25,67
331 1436 SIMON JACKY 04:12:42 25,64
332 226 CLET DAVID BERNARD 04:12:54 25,62
333 838 DI BENEDETTO SALVATORE 04:13:08 25,60
334 369 XHOFFRAY ARNAUD 04:13:26 25,57
335 495 LAUZIER ALAIN 04:13:34 25,56
336 949 MUNOZ CHRISTOPHE 04:14:04 25,51
337 365 SUPLIT MICHEL 04:14:09 25,50
338 1087 JACQUOT FREDERIC 04:14:19 25,48
339 627 MOLLA JULIEN 04:14:22 25,48
340 823 SAURET JACQUES 04:14:29 25,46
341 878 ARTUFEL GEORGES 04:14:31 25,46
342 739 LAYRIS CHARLES 04:14:31 25,46
343 556 VESTERS MARC 04:14:32 25,46
344 664 CHANDELIER ERIC 04:14:32 25,46
345 974 PAVEAU LAETITIA 04:15:00 25,41
346 926 ARNAUD PHILIPPE 04:15:02 25,41
347 700 VERZEROLI ALAIN 04:15:02 25,41
348 932 VERRI BERNARD 04:15:18 25,38
349 957 CHAUVIN SEBASTIEN 04:15:21 25,38
350 824 PELLIZON PIERRE 04:15:21 25,38
351 532 MANENT EMMANUEL 04:15:22 25,38
352 1237 LAMBERT LUC 04:15:22 25,38
353 1446 RICKENBACH CHRISTIAN 04:15:58 25,32
354 370 PARRENIN LAURENT 04:16:21 25,28
355 699 GARCIN PATRICK 04:16:23 25,27
356 1122 MARTIN WILLIAM 04:16:56 25,22
357 1438 GAUTHIER CHRISTIAN 04:16:56 25,22
358 695 GHEBBANO DANIEL 04:17:00 25,21
359 1073 GROS GEORGES 04:17:06 25,20
360 425 PERRON RENE 04:17:06 25,20
361 1441 BRANCHY REGIS 04:17:11 25,20
362 480 BLANCHOT ISABELLE 04:17:18 25,18
363 177 AITTAHAR SAID 04:17:34 25,16
364 563 REI MARCEL 04:18:03 25,11
365 848 TEISSIER YVES 04:18:18 25,09
366 1331 SAINTBONNET NATHALIE 04:18:21 25,08
367 1337 GONTIER LIONEL 04:18:22 25,08
368 596 PEYTHIEU DANIEL 04:18:25 25,08
369 1028 MACAUDA JOSEPH 04:18:31 25,07
370 1334 OUDJANE MOHAMED KARIM 04:18:40 25,05
371 1280 ABEILLE THIERRY 04:18:42 25,05
372 761 MERCIER VALERIE 04:19:29 24,97
373 757 CABAUD DANIEL 04:19:32 24,97
374 1009 BULLIFFON MICHEL 04:20:57 24,83
375 1066 RAMONDENC JEROME 04:21:33 24,78
376 959 BIANCO GUILLAUME 04:21:37 24,77
377 688 BOUTITIE LOIC 04:21:42 24,76
378 1231 BUDASI MARIA 04:21:44 24,76
379 1358 MARTINET AURELIEN 04:22:26 24,69
380 721 LERAY JEAN 04:22:32 24,68
381 550 CARRE PHILIPPE 04:22:43 24,67
382 589 LAURIERE JEAN PIERRE 04:22:59 24,64
383 1179 GONCALVES DAVID 04:23:00 24,64
384 1312 BUSSARD CHARLES 04:23:11 24,62
385 1188 DELBART AGNES 04:23:22 24,60
386 462 DEMANGE BERNARD 04:23:25 24,60
387 1192 DROY REGIS 04:23:25 24,60
388 87 CLERE CHRISTIAN 04:23:29 24,59
389 1349 HUROU JACKY 04:23:41 24,57
390 790 ALONZO BERNARD 04:23:58 24,55
391 1426 LAUER VALERIE 04:24:10 24,53
392 1424 REY PASCALE 04:24:10 24,53
393 1428 LAUER ERIC 04:24:10 24,53
394 40 RUSCETTA PASCAL 04:24:12 24,53
395 509 GUERRERO JOSE 04:24:16 24,52
396 1278 BOILLOT ANDRE 04:24:18 24,52
397 979 PERE JEAN YVES 04:24:33 24,49
398 534 COULOMBEAU YANN 04:25:35 24,40
399 1403 RIEG OLIVIER 04:25:38 24,39
400 1184 DUTOIT PATRICK 04:26:06 24,35
401 1259 ZERAFA GERARD 04:26:17 24,33
402 302 ORDONNEAU EMMANUEL 04:26:25 24,32
403 1013 GUSMINI BERNARD 04:26:31 24,31
404 619 BERTRAND BRUNO 04:27:18 24,24
405 1372 MIGNOT BENOIT 04:27:53 24,19
406 847 ARNAUD ANDRE 04:27:53 24,19
407 1108 BOURJON JEAN PAUL 04:28:19 24,15
408 986 LAURENT CHRISTIAN 04:28:23 24,14
409 868 CATALUNA RICHARD 04:28:24 24,14
410 867 TER AKOPOFF JACQUES 04:28:26 24,14
411 904 MOLINIER PHILIPPE 04:28:27 24,14
412 1011 MAURIN DAMIEN 04:28:29 24,14
413 1405 LENOUVEL FRANCOIS 04:28:31 24,13
414 321 WACOGNE THIERRY 04:28:49 24,11
415 1071 CEGLINSKI PHILIPPE 04:29:28 24,05
416 965 ABBATIELLO JEAN CLAUDE 04:30:00 24,00
417 84 MAYER DANIEL 04:30:02 24,00
418 1371 DUHAMEL XAVIER 04:30:03 24,00
419 1067 CRELEY SEBASTIEN 04:30:28 23,96
420 667 LOPEZ MICHEL 04:30:30 23,96
421 1230 TONDO ANDREA 04:30:31 23,95
422 987 ZIGA DAMIR 04:30:43 23,94
423 886 CHENU ARMEL 04:30:48 23,93
424 636 FERRAT BERNARD 04:30:59 23,91
425 1048 LAMICHE JEAN CLAUDE 04:31:20 23,88
426 346 NIVERT CHRISTIAN 04:31:23 23,88
427 1046 LAMICHE ISABELLE 04:31:23 23,88
428 1024 GUILLEMETTE SONIA 04:31:28 23,87
429 493 AMIGUES FABRICE 04:32:23 23,79
430 668 BLACHON CYRIL 04:32:30 23,78
431 457 TISON DIDIER 04:33:11 23,72
432 1084 ARMAND CHRISTOPHE 04:33:29 23,69
433 1430 OGIER SEBASTIEN 04:33:30 23,69
434 725 ROIG ALAIN 04:33:32 23,69
435 398 MANICHON PATRICK 04:33:40 23,68
436 798 LARY CHRISTIAN 04:33:49 23,67
437 1362 COPPOLA HERVE 04:34:00 23,65
438 452 THEOLEYRE BERNARD 04:34:06 23,64
439 1191 DARTE PHILIPPE 04:34:07 23,64
440 507 RODRIGUEZ BERNARD 04:34:13 23,63
441 1329 GELIN DENIS 04:34:23 23,62
442 1326 CLOZEL JEAN PAUL 04:34:43 23,59
443 1262 DI GIOVANNI MICHEL 04:34:45 23,59
444 429 LESPES THIERRY 04:34:55 23,57
445 459 RIBATTO LOUIS 04:34:57 23,57
446 511 CANDINI OMAR 04:35:00 23,56
447 882 FAURE BRAC GERARD 04:35:13 23,55
448 858 RIFFIER JEAN MARIE 04:35:14 23,54
449 517 LABARRE DOMINIQUE 04:36:04 23,47
450 1121 ROGERS STEWART 04:36:08 23,47
451 1216 TAMBURELLA CLAIRE 04:36:39 23,42
452 883 BARET GILBERT 04:37:00 23,39
453 1297 POULET CHRISTIAN 04:37:19 23,37
454 1178 TRANSON PHILIPPE 04:37:20 23,37
455 641 LEBLACHER CLAUDE 04:37:29 23,35
456 1265 GORE JERRY 04:37:34 23,35
457 780 QUEYREL PIERRE 04:37:39 23,34
458 1097 ESPUNA CHANTAL 04:37:48 23,33
459 295 PERRON MARIO 04:38:51 23,24
460 1189 LEMPEREUR SERGE 04:39:04 23,22
461 147 SIGHA YASMINE 04:39:13 23,21
462 1138 GRAZIANI ERIC 04:39:16 23,20
463 49 BENABDELKADER FADIRHA 04:39:59 23,14
464 1098 LOONIS CHRISTOPHE 04:40:02 23,14
465 344 GALY REMY 04:40:45 23,08
466 1086 PRIAULET MAX 04:40:52 23,07
467 834 SELLAL ANTOINE 04:41:13 23,04
468 803 MONTI ANDRE 04:41:19 23,03
469 1363 KOCHOYAN MARC 04:41:34 23,01
470 1143 BACHELARD DENIS 04:41:35 23,01
471 855 MALITOURNE MICHEL 04:41:37 23,01
472 1159 ARNAUD FRANCOIS XAVIER 04:41:44 23,00
473 1308 HEDE SABINE 04:42:18 22,95
474 714 CHAPUIS PATRICK 04:42:19 22,95
475 821 SABLIER RICHARD 04:42:27 22,94
476 822 HERREGODS JEAN MARC 04:42:27 22,94
477 107 RAMES CHRISTOPHE 04:44:42 22,76
478 1012 MAURIN PHILIPPE 04:46:13 22,64
479 697 BOREL LAURENCE 04:46:13 22,64
480 693 SANCHEZ DAVID 04:46:13 22,64
481 694 PINEDA GERARD 04:46:13 22,64
482 1400 GALLO LAVESE DANILO 04:47:14 22,56
483 1088 LAUGA JEAN 04:47:30 22,54
484 744 FAURE GIGNOUX GERMAINE 04:47:53 22,51
485 684 GALLIOZ GILBERT 04:48:22 22,47
486 402 DEFFRASNES BERNARD 04:48:24 22,47
487 1310 EPIARD CHRISTIAN 04:48:26 22,47
488 604 PARIZET HERVE 04:48:48 22,44
489 655 RAULIN ANNE 04:49:50 22,36
490 943 BLIGNY PATRICK 04:49:51 22,36
491 1001 CANTONE PAOLA 04:50:03 22,34
492 999 RUPO DAVIDE 04:50:04 22,34
493 95 BODINO ALAIN 04:50:51 22,28
494 590 LEPRINCE JEAN MARIE 04:50:59 22,27
495 458 SEIGLE BRUNO 04:51:04 22,26
496 455 CARRE PICCRAT ROGER 04:51:04 22,26
497 746 BECAM SYLVIANE 04:51:36 22,22
498 842 ARNAUD PATRICK 04:52:24 22,16
499 557 CASULILI CARLO 04:52:40 22,14
500 432 FINI ANTONIO 04:52:44 22,14
501 1204 BOOME PHILIPPE 04:54:12 22,03
502 1244 MARINI VINCENT 04:54:13 22,02
503 860 LESAGE FRANCOIS PAUL 04:54:14 22,02
504 105 CATIN JEAN CLAUDE 04:54:38 21,99
505 812 DEMENOIS ANNIE 04:54:41 21,99
506 306 COMTE NICOLAS 04:54:55 21,97
507 59 MANCINI ROBERT 04:55:00 21,97
508 835 CALIGARIS LAURENT 04:55:00 21,97
509 792 LANCON MAXIME 04:55:02 21,96
510 800 TINAZZI DELPHINE 04:55:10 21,95
511 1144 BUGNI PATRICK 04:55:25 21,94
512 454 BUIGUES ELISABETH 04:55:29 21,93
513 415 PILLER MICHEL 04:56:28 21,86
514 1232 GHIA GIANFRANCO 04:57:38 21,77
515 1198 DOUBET JEAN PIERRE 04:58:02 21,74
516 1351 DORLY GILBERT 04:58:02 21,74
517 689 SARGENT CHRISTIAN 04:58:14 21,73
518 518 VERBRUGGHE SEBASTIEN 04:59:16 21,65
519 1379 BONNET MICHEL 04:59:17 21,65
520 614 FRANQUIN ISABELLE 05:00:21 21,57
521 796 NIQUET PATRICK 05:00:44 21,55
522 909 CHOPPARD ALAIN 05:01:51 21,47
523 521 BOURDIN ERIC 05:02:22 21,43
524 374 CORONEL JACQUES 05:02:57 21,39
525 891 SCAIA DAVID 05:03:40 21,34
526 1027 ROCHEDY CHRISTOPHE 05:05:04 21,24
527 1187 MONFILS ANNICK 05:05:40 21,20
528 793 MAIZOUE JULIA 05:05:57 21,18
529 593 MICHEL JEAN PATRICE 05:06:21 21,15
530 333 MASCALCHI PATRICK 05:07:44 21,06
531 427 AITTAHAR MOHAMED 05:07:44 21,06
532 541 JOULIN STEVE 05:08:16 21,02
533 1030 FINCK PATRICK 05:08:25 21,01
534 356 MAILLOCHEAU MICHEL 05:08:25 21,01
535 1117 GUEYRAUD FLORENT 05:08:38 21,00
536 529 FINI ITALO 05:10:08 20,89
537 1429 LASCARATOS GERARD 05:10:15 20,89
538 1353 DUPUIS PATRICE 05:10:16 20,89
539 1352 BAFFERT SERGE 05:10:19 20,88
540 334 MAUREL MAURICE 05:10:30 20,87
541 401 RODOT THERESE 05:10:36 20,86
542 829 SOUQHET JEANEDOUARD 05:11:24 20,81
543 1194 CAMPOLI GIORGIO 05:12:09 20,76
544 261 PIOVANO NOELE 05:12:11 20,76
545 634 LAURE OLIVIER 05:13:24 20,68
546 1252 BERNARD MICHEL JEAN 05:13:58 20,64
547 752 FERNANDEZ DANIEL 05:15:37 20,53
548 444 LHERETTE JEAN 05:15:38 20,53
549 498 DALMASSO ROBERT 05:15:55 20,51
550 502 PERREAU XAVIER 05:16:04 20,50
551 1299 VESINE FRED 05:16:23 20,48
552 728 CARASCO PASCAL 05:18:14 20,36
553 702 REEB GRUBER ANDRE 05:19:49 20,26
554 315 BOURGEAIS CLAUDINE 05:21:45 20,14
555 1039 BARDIN PIERRICK 05:21:47 20,14
556 317 ORY GERARD 05:22:30 20,09
557 675 ALIMI MICHELE 05:22:36 20,09
558 1139 CORGIER CLAUDE 05:23:02 20,06
559 676 ALIMI BERNARD 05:23:13 20,05
560 1099 PAOLETTI ROGER 05:23:53 20,01
561 857 SEGUY MICHEL 05:24:19 19,98
562 500 LAVIALLE PASCAL 05:25:54 19,88
563 892 DEMOURES PIERRE YVES 05:26:54 19,82
564 1253 GUILLOBEZ BERNADETTE 05:28:29 19,73
565 1251 GUILLOBEZ SERGE 05:28:31 19,73
566 410 MOAL SERGE 05:30:56 19,58
567 384 JOFFRES PHILIPPE 05:34:30 19,37
568 988 LARROUTUROU MICHEL 05:34:59 19,34
569 222 ELZEARD JEAN PIERRE 05:35:03 19,34
570 187 FURLAN DOMINIQUE 05:37:21 19,21
571 449 BOUCLIER CAROLE 05:40:32 19,03
572 303 PAYAN MICHEL 05:42:41 18,91
573 1185 PALLIER VINCENT 05:46:15 18,71
574 1115 GRYNBLAT JEAN CLAUDE 05:51:37 18,43
575 468 FAURE JEAN PIERRE 05:53:26 18,33
576 465 BOURGEAUX LAURENCE 05:53:30 18,33
577 1080 EYMERY ANGELINE 05:56:51 18,16
578 472 ALGUERO JEAN YVES 05:57:26 18,13
579 366 ROBY JEAN 06:09:43 17,53
580 853 PICHON ROBERT 06:11:20 17,45

Haut 









Haut  
 Área privada   Direitos de autor-Copyright: Clique aqui para ler !